BEIJING 1 1 28890U 05043A 26262.56585797 .00000259 00000+0 59381-4 0 9994 2 28890 98.3051 36.3765 0014489 351.8624 8.2340 14.63578968114459 HUANJING 1A (HJ-1A) 1 33320U 08041A 26262.49113152 .00000151 00000+0 24247-4 0 9997 2 33320 97.6796 244.7441 0018456 184.1949 175.9114 14.84165029972391 HUANJING 1B (HJ-1B) 1 33321U 08041B 26262.50392273 .00000174 00000+0 27353-4 0 9999 2 33321 97.6626 247.6374 0034772 232.7390 127.0652 14.83465113972391 YAOGAN-4 1 33446U 08061A 26262.07052815 .00000634 00000+0 83873-4 0 9996 2 33446 97.9329 194.9038 0015386 121.4741 238.7979 14.83347247959582 DEIMOS-1 1 35681U 09041A 26262.46319043 .00000311 00000+0 52967-4 0 9992 2 35681 97.7539 55.6810 0000441 139.3683 220.7559 14.75317524920787 UK-DMC 2 1 35683U 09041C 26262.51776692 .00000400 00000+0 65102-4 0 9991 2 35683 97.8970 35.2554 0001148 70.8329 289.3005 14.76145321920488 DMC3-FM1 1 40715U 15032A 26262.48987343 -.00000183 00000+0 -15151-4 0 9992 2 40715 97.6313 123.9049 0007011 97.6278 262.5734 14.85819054603917 DMC3-FM2 1 40716U 15032B 26262.51147184 .00000561 00000+0 70369-4 0 9998 2 40716 97.6362 125.5620 0007499 102.9094 257.2960 14.85829927603913 DMC3-FM3 1 40717U 15032C 26262.53551206 .00000805 00000+0 98429-4 0 9993 2 40717 97.6411 127.3962 0006757 101.9258 258.2716 14.85819932603921